{"data":{"norad_id":63045,"intl_designator":"2025-034S","name":"STARLINK-32828","alt_names":[],"object_type":"PAYLOAD","status":"ACTIVE","operator":null,"country":"US","launch_date":"2025-02-18","launch_site_code":"AFETR","launch_vehicle":null,"mission":null,"orbit_class":"UNKNOWN","rcs_meters":null,"size_class":null,"mass_kg":null,"dimensions":null,"purposes":["comms"],"wikipedia_slug":null,"has_3d_model":false,"image_url":null,"decayed_at":null,"tle_current":{"epoch":"2026-09-21T21:28:54.802272Z","epoch_age_seconds":45070,"freshness":"FRESH","line1":"1 63045U 25034S   26264.89507873  .00012765  00000+0  38827-3 0  9990","line2":"2 63045  53.1584  76.9342 0001124  87.0297 273.0834 15.34400184 88988","mean_motion":15.34400184,"eccentricity":0.0001124,"inclination_deg":53.1584,"raan_deg":76.9342,"arg_perigee_deg":87.0297,"mean_anomaly_deg":273.0834,"bstar":0.00038827,"rev_number":8898,"period_min":93.847746827434,"perigee_km":461.93378293885,"apogee_km":463.47160370191,"semimajor_km":6840.8396933204,"source":"CELESTRAK","updated_at":"2026-09-22T09:00:49.747401Z"}}}